Voltar ao catálogo

STARLINK-2156

AtivoComunicaçõesVLEO
NORAD 47742·PAYLOAD·🇺🇸 United States

Lançado Mar 4, 2021 de Cape Canaveral Space Force Station

Loading…

Próximas Passagens (próximas 24 horas)

TLE

AtualizadoSource: CelesTrak SupGP

Época: Sep 15, 2026, 01:12 UTC

1 47742C 21017W   26258.05048611 -.00032327  00000+0 -10396-2 0  2580
2 47742  53.1589  32.9185 0001120  96.1986 129.2411 15.31718111    18

Acompanhe STARLINK-2156 em tempo real com AllMySat

Download on the App Store